Flag for India Weather past 2 weeks in Nadiad, Gujarat, India

Now
91 °F

Haze.


Feels Like: 108 °F
Forecast: 77 / 100 °F
Wind: 6 mph from North

Location: Ahmadabad Airport

Current Time: Oct 2, 2014 at 10:39:49 AM

Latest Report: Oct 2, 2014 at 10:10 AM


Visibility: 2 mi

Pressure: 29.95 "Hg

Humidity: 67%

Dew point: 79 °F

Location of NadiadLocation

Historic Weather in Nadiad — Graph

°F

Nadiad temperature yesterday

Maximum temperature yesterday: 100 °F (at 3:40 PM)
Minimum temperature yesterday: 79 °F (at 5:10 AM)
Average temperature yesterday: 88 °F

Past Weeks' High & Low Weather Summary

 TemperatureHumidityPressure
High100 °F (Sep 29, 2:10 PM)100% (Sep 18, 4:10 AM)29.95 "Hg (Sep 18, 4:10 AM)
Low77 °F (Sep 20, 5:10 AM)40% (Sep 30, 1:40 PM)29.65 "Hg (Sep 17, 3:10 PM)
Average86 °F74%29.81 "Hg
* Reported Sep 17 9:40 AM — Oct 2 8:40 AM, Nadiad, Weather by CustomWeather, © 2014

Note: Actual official high and low records may vary slightly from our data, if they occured in-between our weather recording intervals... More about our weather records

Advertising

Nadiad weather history for previous 24 hours

 ConditionsComfort  
Time TempWeatherWind HumidityBarometerVisibility
8:40 AM
Oct 2
84 °FFog.5 mph79%29.95 "Hg1 mi
8:10 AM82 °FFog.3 mph74%29.95 "Hg1 mi
7:40 AM81 °FFog.3 mph74%29.92 "Hg1 mi
6:40 AM79 °FHaze.3 mph79%29.89 "Hg2 mi
6:10 AM77 °FHaze.3 mph83%29.89 "Hg2 mi
5:40 AM79 °FHaze.2 mph84%29.89 "Hg2 mi
5:10 AM79 °FHaze.3 mph84%29.86 "Hg2 mi
4:40 AM81 °FHaze.3 mph79%29.86 "Hg2 mi
4:10 AM81 °FHaze.5 mph79%29.86 "Hg2 mi
3:40 AM81 °FHaze.3 mph79%29.86 "Hg2 mi
3:10 AM81 °FHaze.No wind79%29.86 "Hg2 mi
2:40 AM81 °FHaze.No wind79%29.86 "Hg2 mi
2:10 AM82 °FHaze.No wind74%29.86 "Hg2 mi
1:40 AM81 °FHaze.No wind79%29.86 "Hg2 mi
1:10 AM82 °FHaze.No wind79%29.86 "Hg2 mi
12:40 AM84 °FHaze.No wind79%29.89 "Hg2 mi
12:10 AM82 °FHaze.No wind84%29.89 "Hg2 mi
11:40 PM
Oct 1
84 °FHaze.No wind79%29.89 "Hg2 mi
11:10 PM86 °FHaze.No wind75%29.89 "Hg2 mi
10:40 PM86 °FHaze.No wind75%29.89 "Hg2 mi
10:10 PM86 °FHaze.2 mph75%29.89 "Hg2 mi
9:40 PM86 °FHaze.2 mph75%29.89 "Hg2 mi
9:10 PM86 °FHaze.2 mph75%29.89 "Hg2 mi
8:40 PM88 °FHaze.No wind75%29.89 "Hg2 mi
8:10 PM90 °FHaze.3 mph75%29.86 "Hg2 mi
7:40 PM91 °FPassing clouds.No wind67%29.86 "Hg2 mi
7:10 PM91 °FPassing clouds.No wind67%29.83 "Hg2 mi
6:40 PM93 °FPassing clouds.No wind56%29.80 "Hg2 mi
6:10 PM95 °FPassing clouds.No wind56%29.80 "Hg3 mi
5:40 PM95 °FPassing clouds.No wind56%29.80 "Hg3 mi
5:10 PM99 °FScattered clouds.No wind60%29.80 "Hg3 mi
4:40 PM99 °FScattered clouds.3 mph60%29.80 "Hg3 mi
4:10 PM100 °FScattered clouds.3 mph57%29.80 "Hg3 mi
3:40 PM100 °FScattered clouds.3 mph53%29.80 "Hg3 mi
3:10 PM99 °FScattered clouds.5 mph53%29.80 "Hg3 mi
2:40 PM97 °FScattered clouds.3 mph56%29.83 "Hg3 mi
2:10 PM97 °FPassing clouds.3 mph44%29.83 "Hg3 mi
1:40 PM97 °FPassing clouds.5 mph44%29.83 "Hg3 mi
12:40 PM97 °FClear.3 mph47%29.86 "Hg3 mi
12:10 PM95 °FClear.3 mph50%29.89 "Hg3 mi
11:40 AM93 °FClear.3 mph53%29.89 "Hg3 mi
11:10 AM93 °FHaze.3 mph56%29.92 "Hg2 mi
10:40 AM91 °FHaze.6 mph59%29.92 "Hg2 mi
Weather by CustomWeather, © 2014

See weather overviewHow to use our weather pages